Regional Weather Roundup
Issued by NWS Charleston, SC

Current Version | Previous Version | Graphics & Text | Print | Product List | Glossary On
Versions: 1 2 3 4 5 6 7 8 9 10 11 12 13 14 15 16 17 18 19 20 21 22 23 24 25 26 27 28 29 30 31 32 33 34 35 36 37 38 39 40 41 42 43 44 45 46 47 48 49 50
000 ASUS42 KCHS 252010 RWRCHS REGIONAL WEATHER ROUNDUP NATIONAL WEATHER SERVICE CHARLESTON SC 400 PM EDT SAT OCT 25 2014 NOTE: "FAIR" INDICATES FEW OR NO CLOUDS BELOW 12,000 FEET WITH NO SIGNIFICANT WEATHER AND/OR OBSTRUCTIONS TO VISIBILITY. NOT ALL STATIONS ARE QUALITY CONTROLLED BY THE NATIONAL WEATHER SERVICE. USE DATA WITH CAUTION...ESPECIALLY DEWPOINT OBSERVATIONS. SCZ027-030-031-034>040-042>050-252100- ...SOUTH CAROLINA... CITY SKY/WX TMP DP RH WIND PRES REMARKS N CHARLESTON SUNNY 77 43 29 CALM 29.95F WATERFRONT PRK N/A 75 N/A N/A N5G13 N/A FORT JOHNSON NOT AVBL JOHNS ISLAND CLEAR 75 46 35 CALM 29.96F PINOPOLIS NOT AVBL MONCKS CORNER FAIR 73 48 40 CALM 29.95S SUMMERVILLE FAIR 75 46 35 CALM 29.96F BEAUFORT MCAS SUNNY 75 47 36 NW5 29.96F BEAUFORT ARPT FAIR 73 48 40 CALM 29.96F HILTON HEAD IS SUNNY 73 45 35 NW7 29.97F GEORGETOWN NOT AVBL WALTERBORO CLEAR 75 37 25 CALM 29.96F ORANGEBURG SUNNY 75 39 27 NW5 29.96F BARNWELL FAIR 79 46 31 W5 29.97S AIKEN FAIR 77 45 31 W7 30.00S MANNING FAIR 73 48 40 S5 29.95S KINGSTREE NOT AVBL COLUMBIA SUNNY 75 37 25 W7 29.96F SUMTER SUNNY 74 44 33 W6 29.94F FLORENCE SUNNY 75 36 24 NW12 29.94S MYRTLE BEACH NOT AVBL N MYRTLE BEACH SUNNY 74 47 38 VRB5 29.92F $$ GAZ063-065-086>088-099>101-113>116-118-119-134-136>141-150-252100- ...GEORGIA... CITY SKY/WX TMP DP RH WIND PRES REMARKS SAVANNAH ARPT SUNNY 77 45 32 CALM 29.97F HUNTER AAF SUNNY 75 47 36 VRB5 29.95F FORT STEWART SUNNY 76 44 32 CALM 29.95F STATESBORO NOT AVBL SYLVANIA CLEAR 82 51 34 NW6 29.98S CLAXTON FAIR 77 46 33 CALM 29.97S THOMSON SUNNY 75 51 41 W6 30.03F AUGUSTA-BUSH SUNNY 77 37 23 N6 29.96F AUGUSTA-DANIEL SUNNY 78 40 25 NE6 29.98F SWAINSBORO FAIR 81 46 30 MISG 29.97F VIDALIA SUNNY 79 46 31 N5 29.97F ALMA SUNNY 78 45 30 VRB3 29.96F WAYCROSS SUNNY 81 51 34 N5 29.97S JESUP FAIR 79 46 31 CALM 29.97S BRUNSWICK SUNNY 77 41 27 W5 29.98S SAINT SIMONS SUNNY 73 53 49 VRB7 29.97F $$ SCZ027-028-034-036>038-045-046-048>050-GAZ119-141-252100- ...LAKE AND SUPPLEMENTAL COASTAL OBSERVATIONS... STATION/POSITION TIME TEMP WIND PRES WAVE SWELL AIR SEA DIR/SP/G HT/PER HT/PER/DIR (UTC) (F) (DEG/KT/KT) (MB) (FT/S) (FT/S/D) UPR LAKE MARION NOT AVBL WINYAH BAY 1900 72 290/ 2 1014.0S LAKE MURRAY 1900 71 190/ 6/ 8 1014.6F ACE BASIN NERRS 1900 75 340/ 2 1015.0S FORT PULASKI 2000 71 90/ 7/ 8 1015.0F SAPELO ISLAND NOT AVBL $$ ANZ835-935-AMZ111-154-330-350-352-354-374-450-454-472-252100- ...C-MAN AND BUOY OBSERVATIONS... STATION/POSITION TIME TEMP WIND PRES WAVE SWELL AIR SEA DIR/SP/G HT/PER HT/PER/DIR (UTC) (F) (DEG/KT/KT) (MB) (FT/S) (FT/S/D) FOLLY BEACH CMAN 1900 72 60/ 3/ 4 1015.1F BUOY 41004 2000 69 78 340/ 4/ 8 1014.1F 2/10 2/10 BUOY 41008 2000 70 74 360/ 8/ 10 1015.2F 2/ 9 2/ 80/ 9 5E ST. MARYS GA 2000 75 N/A 2/11 FRYING PAN BUOY 2000 68 74 300/ 2/ 4 1014.5F 2/ 9 2/100/ 9 BUOY 41025 2000 67 270/ 6/ 8 1012.6F 3/ 8 3/ 50/ 8 CAPE LOOKOUT NC 1900 68 220/ 6/ 8 1013.0F BUOY 41002 1949 73 77 20/ 10/ 14 1012.2F 4/ 8 3/ 10/ 8 BUOY 41010 2000 76 82 10/ 19/ 25 1012.1F 3/ 6 2/ 70/11 BUOY 41012 NOT AVBL ST AUGUSTINE FL 2000 70 10/ 13/ 14 1015.4F CAPERS NEARSHORE NOT AVBL FRIPP NEARSHORE NOT AVBL $$

USA.gov is the U.S. government's official web portal to all federal, state and local government web resources and services.